Omaha, IA

12:14 AM CDT on April 22, 2018 (GMT -0500)
Eppley Airfield

Weather History for KOMA - August, 2012

Change the Weather History Date:

Tuesday, August 28, 2012

  Actual Average Record
Temperature  
Mean Temperature 82 °F 72 °F  
Max Temperature 95 °F 84 °F 101 °F (2000)
Min Temperature 68 °F 62 °F 44 °F (1986)
Degree Days  
Heating Degree Days 0 0  
Month to date heating degree days 6 0  
Since 1 June heating degree days 15 18  
Since 1 July heating degree days 6 1  
Cooling Degree Days 17 8  
Month to date cooling degree days 290 279  
Year to date cooling degree days 1490 956  
Since 1 June cooling degree days 1262 874  
Growing Degree Days 32 (Base 50)    
Moisture  
Dew Point 59 °F    
Average Humidity 54    
Maximum Humidity 84    
Minimum Humidity 23    
Precipitation  
Precipitation 0.00 in 0.11 in 2.41 in (1957)
Month to date precipitation 2.39 3.49  
Year to date precipitation 16.72 22.78  
Snow  
Snow 0.00 in 0.00 in - ()
Month to date snowfall 0.0 0.0  
Since 1 July snowfall 0.0 0.0  
Snow Depth 0.00 in    
Sea Level Pressure  
Sea Level Pressure 30.02 in    
Wind  
Wind Speed 11 mph (South)    
Max Wind Speed 21 mph    
Max Gust Speed 28 mph    
Visibility 10 miles    
Events      
T = Trace of Precipitation, MM = Missing Value Source: NWS Daily Summary

Daily Weather History Graph

Daily Weather History Graph

Search for Another Location

Airport or City:

Astronomy

Aug. 28, 2012 Rise Set
Actual Time 6:46 AM CDT 8:02 PM CDT
Civil Twilight 6:17 AM CDT 8:30 PM CDT
Nautical Twilight 5:43 AM CDT 9:04 PM CDT
Astronomical Twilight 5:07 AM CDT 9:40 PM CDT
Moon 6:06 PM CDT (8/28) 3:35 AM CDT (8/28)
Length of Visible Light 14h 12m
Length of Day
13h 15m
Waxing Gibbous, 90% of the Moon is Illuminated
Aug 28
Waxing Gibbous
Aug 31
Full
Sep 8
Last Quarter
Sep 15
New
Sep 22
First Quarter

Hourly Weather History & Observations

Time (CDT) Temp. Heat Index Dew Point Humidity Pressure Visibility Wind Dir Wind Speed Gust Speed Precip Events Conditions
12:52 AM 73.0 °F - 64.0 °F 73% 30.09 in 10.0 mi SE 4.6 mph - N/A   Clear
1:52 AM 72.0 °F - 64.9 °F 78% 30.09 in 10.0 mi SSE 5.8 mph - N/A   Clear
2:52 AM 70.0 °F - 64.0 °F 81% 30.08 in 10.0 mi SE 5.8 mph - N/A   Clear
3:52 AM 69.1 °F - 63.0 °F 81% 30.08 in 10.0 mi SSE 6.9 mph - N/A   Clear
4:52 AM 68.0 °F - 63.0 °F 84% 30.07 in 10.0 mi SSE 6.9 mph - N/A   Clear
5:52 AM 68.0 °F - 63.0 °F 84% 30.07 in 10.0 mi SSE 6.9 mph - N/A   Clear
6:52 AM 69.1 °F - 63.0 °F 81% 30.08 in 10.0 mi SSE 8.1 mph - N/A   Clear
7:52 AM 69.1 °F - 64.0 °F 84% 30.11 in 10.0 mi SSE 6.9 mph - N/A   Clear
8:52 AM 73.9 °F - 64.0 °F 71% 30.11 in 10.0 mi SSE 8.1 mph - N/A   Clear
9:52 AM 79.0 °F - 62.1 °F 56% 30.09 in 10.0 mi South 11.5 mph - N/A   Clear
10:52 AM 84.9 °F 84.4 °F 59.0 °F 41% 30.10 in 10.0 mi SSW 12.7 mph - N/A   Clear
11:52 AM 87.8 °F 86.5 °F 57.2 °F 35% 30.10 in 10.0 mi South 15.0 mph - N/A   Partly Cloudy
12:52 PM 91.0 °F 89.7 °F 57.0 °F 32% 30.06 in 10.0 mi South 15.0 mph 23.0 mph N/A   Scattered Clouds
1:52 PM 91.0 °F 89.2 °F 55.9 °F 30% 30.03 in 10.0 mi South 17.3 mph 23.0 mph N/A   Scattered Clouds
2:52 PM 93.0 °F 90.8 °F 54.0 °F 27% 30.00 in 10.0 mi SSW 15.0 mph 23.0 mph N/A   Partly Cloudy
3:52 PM 93.9 °F 91.7 °F 54.0 °F 26% 29.97 in 10.0 mi South 13.8 mph 20.7 mph N/A   Clear
4:52 PM 95.0 °F - 51.1 °F 22% 29.94 in 10.0 mi SSW 17.3 mph 21.9 mph N/A   Partly Cloudy
5:52 PM 93.9 °F 91.4 °F 53.1 °F 25% 29.91 in 10.0 mi South 17.3 mph 26.5 mph N/A   Partly Cloudy
6:52 PM 91.9 °F 89.5 °F 54.0 °F 27% 29.91 in 10.0 mi South 11.5 mph - N/A   Partly Cloudy
7:52 PM 89.1 °F 87.1 °F 55.0 °F 31% 29.91 in 10.0 mi South 11.5 mph - N/A   Clear
8:52 PM 84.9 °F 83.6 °F 55.0 °F 36% 29.92 in 10.0 mi South 10.4 mph - N/A   Clear
9:52 PM 82.0 °F 81.7 °F 57.0 °F 42% 29.94 in 10.0 mi South 9.2 mph - N/A   Clear
10:52 PM 77.0 °F - 59.0 °F 54% 29.94 in 10.0 mi SSE 12.7 mph - N/A   Clear
11:52 PM 75.0 °F - 60.1 °F 60% 29.94 in 10.0 mi SSE 10.4 mph - N/A   Partly Cloudy